Okmulgee, OK

2:38 AM CST on February 25, 2017 (GMT -0600)
Okmulgee Regional

Weather History for KOKM - April, 2014

Change the Weather History Date:

Sunday, April 20, 2014

  Actual Average (KMKO) Record (KMKO)
Temperature  
Mean Temperature 63 °F -  
Max Temperature 74 °F 70 °F 84 °F (1997)
Min Temperature 52 °F 49 °F 41 °F (2013)
Degree Days  
Heating Degree Days 2    
Growing Degree Days 13 (Base 50)    
Moisture  
Dew Point 55 °F    
Average Humidity 75    
Maximum Humidity 97    
Minimum Humidity 52    
Precipitation  
Precipitation 0.05 in - - ()
Sea Level Pressure  
Sea Level Pressure 30.09 in    
Wind  
Wind Speed 3 mph (South)    
Max Wind Speed 16 mph    
Max Gust Speed 25 mph    
Visibility 10 miles    
Events Rain    
Averages and records for this station are not official NWS values.
T = Trace of Precipitation, MM = Missing Value Source: NWS Daily Summary

Daily Weather History Graph

Daily Weather History Graph

Search for Another Location

Airport or City:

Trip Planner

Search our weather history database for the weather conditions in past years. The results will help you decide how hot, cold, wet, or windy it might be!

Date:

Astronomy

Apr. 20, 2014 Rise Set
Actual Time 6:44 AM CDT 8:01 PM CDT
Civil Twilight 6:18 AM CDT 8:27 PM CDT
Nautical Twilight 5:46 AM CDT 8:59 PM CDT
Astronomical Twilight 5:13 AM CDT 9:32 PM CDT
Moon 12:37 AM CDT (4/20) 11:10 AM CDT (4/20)
Length of Visible Light 14h 09m
Length of Day
13h 16m
Waning Gibbous, 68% of the Moon is Illuminated
Apr 20
Waning Gibbous
Apr 22
Last Quarter
Apr 29
New
May 6
First Quarter
May 14
Full

Hourly Weather History & Observations

Time (CDT) Temp. Dew Point Humidity Pressure Visibility Wind Dir Wind Speed Gust Speed Precip Events Conditions
12:15 AM 58.3 °F 50.4 °F 75% 30.11 in 10.0 mi Calm Calm - N/A   Clear
12:35 AM 58.6 °F 50.2 °F 73% 30.11 in 10.0 mi Calm Calm - N/A   Clear
12:55 AM 57.9 °F 49.6 °F 74% 30.12 in 10.0 mi South 3.5 mph - N/A   Clear
1:15 AM 57.6 °F 49.6 °F 75% 30.11 in 10.0 mi Calm Calm - N/A   Clear
1:35 AM 56.5 °F 49.5 °F 77% 30.12 in 10.0 mi Calm Calm - N/A   Clear
1:55 AM 56.5 °F 50.0 °F 79% 30.12 in 10.0 mi Calm Calm - N/A   Clear
2:15 AM 57.2 °F 49.6 °F 76% 30.11 in 10.0 mi Calm Calm - N/A   Clear
2:35 AM 55.8 °F 50.0 °F 81% 30.11 in 10.0 mi Calm Calm - N/A   Clear
2:55 AM 56.8 °F 50.0 °F 78% 30.11 in 10.0 mi Calm Calm - N/A   Clear
3:15 AM 56.1 °F 50.0 °F 80% 30.11 in 10.0 mi Calm Calm - N/A   Clear
3:35 AM 54.7 °F 50.2 °F 85% 30.11 in 10.0 mi Calm Calm - N/A   Clear
3:55 AM 55.9 °F 50.2 °F 81% 30.11 in 10.0 mi Calm Calm - N/A   Clear
4:15 AM 55.8 °F 50.0 °F 81% 30.11 in 10.0 mi Calm Calm - N/A   Clear
4:35 AM 55.4 °F 50.0 °F 82% 30.11 in 10.0 mi Calm Calm - N/A   Clear
4:55 AM 53.8 °F 49.6 °F 86% 30.10 in 10.0 mi Calm Calm - N/A   Clear
5:15 AM 55.8 °F 50.0 °F 81% 30.11 in 10.0 mi SSE 3.5 mph - N/A   Clear
5:35 AM 52.9 °F 50.0 °F 90% 30.11 in 10.0 mi Calm Calm - N/A   Clear
5:55 AM 53.2 °F 50.2 °F 89% 30.11 in 10.0 mi Calm Calm - N/A   Clear
6:15 AM 54.9 °F 50.4 °F 85% 30.12 in 10.0 mi Calm Calm - N/A   Clear
6:35 AM 56.1 °F 50.7 °F 82% 30.12 in 10.0 mi Calm Calm - N/A   Clear
6:55 AM 54.0 °F 51.4 °F 91% 30.13 in 10.0 mi East 4.6 mph - N/A   Clear
7:15 AM 54.5 °F 51.3 °F 89% 30.13 in 10.0 mi Calm Calm - N/A   Clear
7:35 AM 55.8 °F 52.3 °F 88% 30.13 in 10.0 mi Calm Calm - N/A   Clear
7:55 AM 56.5 °F 53.1 °F 88% 30.13 in 10.0 mi ENE 3.5 mph - N/A   Clear
8:15 AM 57.4 °F 53.4 °F 87% 30.14 in 10.0 mi Calm Calm - N/A   Clear
8:35 AM 58.8 °F 54.0 °F 84% 30.14 in 10.0 mi Calm Calm - N/A   Clear
8:55 AM 60.8 °F 54.9 °F 81% 30.14 in 10.0 mi Calm Calm - N/A   Clear
9:15 AM 62.8 °F 54.5 °F 74% 30.14 in 10.0 mi Calm Calm - N/A   Clear
9:35 AM 63.7 °F 54.1 °F 71% 30.14 in 10.0 mi SSE 4.6 mph - N/A   Clear
9:55 AM 64.4 °F 54.3 °F 70% 30.14 in 10.0 mi SSE 5.8 mph - N/A   Clear
10:15 AM 65.5 °F 54.5 °F 68% 30.14 in 10.0 mi SSE 6.9 mph - N/A   Scattered Clouds
10:35 AM 66.2 °F 54.5 °F 66% 30.14 in 10.0 mi SE 11.5 mph - N/A   Scattered Clouds
10:55 AM 66.2 °F 54.5 °F 66% 30.15 in 10.0 mi South 16.1 mph 23.0 mph N/A   Light Drizzle
11:15 AM 67.1 °F 54.7 °F 64% 30.15 in 10.0 mi South 12.7 mph 24.2 mph N/A   Overcast
11:35 AM 68.5 °F 54.7 °F 61% 30.15 in 10.0 mi South 9.2 mph 19.6 mph N/A   Mostly Cloudy
11:55 AM 69.4 °F 55.2 °F 60% 30.14 in 10.0 mi South 10.4 mph - N/A   Mostly Cloudy
12:15 PM 69.8 °F 55.0 °F 59% 30.12 in 10.0 mi South 8.1 mph - N/A   Scattered Clouds
12:35 PM 70.7 °F 55.6 °F 59% 30.12 in 10.0 mi South 9.2 mph - N/A   Clear
12:55 PM 70.9 °F 55.6 °F 58% 30.12 in 10.0 mi South 8.1 mph - N/A   Clear
1:15 PM 71.6 °F 55.9 °F 58% 30.11 in 10.0 mi South 9.2 mph - N/A   Scattered Clouds
1:35 PM 71.6 °F 55.8 °F 57% 30.11 in 10.0 mi South 8.1 mph - N/A   Mostly Cloudy
1:55 PM 72.7 °F 56.3 °F 56% 30.10 in 10.0 mi South 10.4 mph 17.3 mph N/A   Overcast
2:15 PM 73.4 °F 56.1 °F 55% 30.09 in 10.0 mi South 8.1 mph - N/A   Mostly Cloudy
2:35 PM 74.3 °F 55.9 °F 53% 30.08 in 10.0 mi South 10.4 mph 17.3 mph N/A   Scattered Clouds
2:55 PM 74.3 °F 56.1 °F 53% 30.08 in 10.0 mi South 9.2 mph 19.6 mph N/A   Mostly Cloudy
3:15 PM 72.9 °F 55.2 °F 54% 30.08 in 10.0 mi SW 8.1 mph - N/A   Overcast
3:35 PM 74.1 °F 55.8 °F 53% 30.06 in 10.0 mi SSW 9.2 mph - N/A   Overcast
3:55 PM 74.3 °F 55.6 °F 52% 30.06 in 10.0 mi South 8.1 mph - N/A   Overcast
4:15 PM 73.9 °F 56.3 °F 54% 30.06 in 10.0 mi South 8.1 mph - N/A   Overcast
4:35 PM 73.8 °F 55.4 °F 53% 30.06 in 10.0 mi South 9.2 mph 25.3 mph N/A   Overcast
4:55 PM 72.9 °F 54.1 °F 52% 30.05 in 10.0 mi SSW 8.1 mph 24.2 mph N/A   Mostly Cloudy
5:15 PM 72.7 °F 54.5 °F 53% 30.05 in 10.0 mi SSW 8.1 mph - N/A   Overcast
5:35 PM 72.9 °F 55.0 °F 53% 30.05 in 10.0 mi South 9.2 mph - N/A   Overcast
5:55 PM 72.7 °F 54.9 °F 53% 30.05 in 10.0 mi SSW 9.2 mph - N/A   Overcast
6:15 PM 71.6 °F 55.4 °F 57% 30.04 in 10.0 mi South 8.1 mph - N/A   Overcast
6:35 PM 70.5 °F 56.3 °F 61% 30.04 in 10.0 mi South 9.2 mph - N/A Rain Rain
6:55 PM 66.9 °F 59.4 °F 77% 30.05 in 7.0 mi SW 4.6 mph - 0.01 in Rain Rain
7:15 PM 64.9 °F 60.8 °F 86% 30.04 in 7.0 mi South 3.5 mph - 0.02 in Rain Light Rain
7:35 PM 64.8 °F 60.8 °F 87% 30.04 in 7.0 mi SSW 3.5 mph - 0.03 in Rain Light Rain
7:55 PM 63.7 °F 61.5 °F 93% 30.03 in 10.0 mi SE 6.9 mph - 0.03 in   Scattered Clouds
8:15 PM 63.7 °F 61.0 °F 91% 30.03 in 10.0 mi South 11.5 mph 20.7 mph N/A   Scattered Clouds
8:35 PM 63.5 °F 61.2 °F 92% 30.03 in 10.0 mi South 13.8 mph 20.7 mph N/A   Light Drizzle
8:55 PM 63.0 °F 61.0 °F 93% 30.02 in 10.0 mi SSE 13.8 mph 19.6 mph N/A Rain Light Rain
9:15 PM 62.8 °F 60.8 °F 93% 30.03 in 10.0 mi South 13.8 mph 25.3 mph 0.01 in Rain Rain
9:35 PM 62.8 °F 60.1 °F 91% 30.03 in 10.0 mi SE 8.1 mph - 0.01 in Rain Light Rain
9:55 PM 62.8 °F 59.9 °F 90% 30.04 in 10.0 mi WSW 4.6 mph - 0.01 in   Scattered Clouds
10:15 PM 62.1 °F 59.9 °F 93% 30.05 in 10.0 mi WSW 4.6 mph - N/A   Clear
10:35 PM 61.0 °F 59.5 °F 95% 30.04 in 7.0 mi Calm Calm - N/A   Clear
10:55 PM 60.4 °F 59.2 °F 96% 30.05 in 7.0 mi SE 5.8 mph - N/A   Scattered Clouds
11:15 PM 60.6 °F 58.8 °F 94% 30.04 in 10.0 mi SW 3.5 mph - N/A   Clear
11:35 PM 60.1 °F 58.6 °F 95% 30.03 in 7.0 mi WNW 3.5 mph - N/A   Clear
11:55 PM 59.4 °F 58.6 °F 97% 30.03 in 7.0 mi SSW 3.5 mph - N/A   Clear